GFSSE_925_thetae_159.txt.gz
Theta_e
352 345 346 345 347 347 345 342 339 334 331 328 327 329 334 335 335 335 335 332 330 333 336 340 344 342 340 337 333 325 323 323 323 323 323 323 324 336 342 344 344 326 325
349 345 346 345 347 346 345 341 339 335 332 328 326 331 329 330 334 337 336 332 334 337 341 344 342 340 338 335 328 324 324 323 324 324 324 324 324 325 334 340 342 330 325
349 344 345 344 345 346 345 341 339 335 332 327 328 330 336 340 346 342 335 335 338 347 345 344 342 341 338 330 325 324 326 325 329 340 335 339 326 325 325 325 326 326 326
349 344 343 343 344 345 346 341 340 336 333 328 329 333 345 345 342 337 338 339 343 349 347 345 342 342 338 327 325 325 328 335 342 343 345 345 337 335 335 329 327 326 326
349 345 343 342 342 344 346 341 341 337 334 329 330 334 347 348 341 342 344 348 348 348 346 343 343 337 331 326 325 325 328 332 337 341 346 347 348 345 341 340 339 338 338
350 348 344 342 341 343 346 342 342 338 334 330 331 334 345 349 346 349 346 345 345 344 342 336 329 328 327 326 325 325 326 330 336 347 351 347 345 346 341 341 341 339 338
353 352 344 341 340 342 344 342 343 339 335 332 332 334 342 350 347 349 346 344 342 338 331 328 327 327 327 326 325 325 325 330 341 345 346 348 347 345 341 336 335 336 340
354 354 344 342 340 342 344 342 343 341 336 334 334 333 339 348 349 348 344 339 335 333 332 330 328 326 327 327 326 324 325 331 337 337 342 347 344 340 338 335 333 334 335
355 356 344 344 341 342 343 343 343 341 338 336 335 334 335 344 348 342 340 337 335 333 330 327 325 325 325 325 325 325 324 325 328 336 343 342 340 339 335 334 336 337 337
357 356 346 344 352 344 345 343 344 341 339 338 336 335 334 340 341 339 338 337 334 332 330 328 325 323 323 323 322 322 323 324 329 331 346 340 337 335 335 336 336 337 338
357 356 348 342 347 347 345 345 345 343 341 340 338 336 334 337 338 338 337 335 333 331 330 326 324 323 322 323 323 323 324 328 327 336 341 338 337 336 336 337 336 334 337
357 353 349 343 343 347 349 353 347 345 344 342 338 338 333 335 337 336 337 337 332 331 326 324 323 324 323 329 333 330 334 333 334 336 340 338 339 340 338 334 331 331 332
356 352 350 347 341 349 351 351 347 347 344 342 339 335 333 336 337 339 341 344 333 331 325 324 323 324 334 338 341 340 338 338 343 342 340 340 340 337 335 332 330 330 331
355 352 350 348 343 347 347 344 344 343 343 342 338 332 341 343 344 342 343 338 335 329 325 330 327 339 341 343 344 343 343 346 345 343 342 340 338 336 333 329 328 330 329
355 352 350 348 344 345 345 342 341 341 340 339 337 328 341 344 342 344 343 339 331 330 335 340 340 342 343 345 345 345 343 346 345 344 343 342 340 335 332 330 327 326 325
353 352 350 349 345 345 345 341 340 338 337 338 337 326 339 345 341 342 346 339 339 339 338 341 342 343 347 347 346 345 345 342 343 343 342 340 339 335 332 330 326 324 323
355 354 351 349 348 347 345 342 341 340 338 340 337 331 339 346 344 343 346 341 340 341 342 345 346 349 348 348 346 346 343 340 345 343 337 336 337 336 333 329 327 328 327
356 354 352 350 350 349 345 343 343 342 340 341 339 337 339 345 347 343 342 341 343 348 348 347 348 348 347 346 346 344 345 343 339 337 335 336 336 332 332 330 330 329 327
340 356 354 351 353 350 346 346 346 344 343 344 342 341 341 346 346 342 342 341 341 344 344 347 350 347 346 346 344 344 343 341 338 335 335 334 333 332 330 330 330 328 326
326 358 356 354 351 351 347 346 351 349 345 347 344 343 342 345 345 342 342 340 350 347 348 349 348 345 344 343 341 340 340 338 333 331 333 332 331 330 330 331 330 328 325
324 344 358 357 352 353 349 349 349 351 349 349 348 345 344 344 344 341 342 345 350 348 347 346 345 345 342 339 335 332 340 336 331 331 335 333 331 332 332 330 330 327 325
323 345 357 356 352 350 350 349 351 351 349 350 348 344 345 343 345 340 349 349 348 346 346 347 346 342 339 334 329 336 333 336 333 332 336 333 333 334 332 330 327 325 322
320 335 357 356 355 353 353 344 350 351 350 352 348 346 345 343 344 341 349 347 347 345 346 345 344 340 338 334 333 333 329 332 330 331 336 331 329 326 320 319 319 319 316
320 322 350 357 356 354 354 353 351 351 351 351 348 347 345 343 343 342 348 347 348 348 342 339 338 337 336 334 335 334 333 334 329 328 326 323 320 318 317 318 316 315 316
326 321 351 358 357 356 354 354 352 351 350 351 347 347 345 344 343 350 348 348 348 344 336 329 330 332 334 333 332 330 326 326 322 324 323 320 318 317 315 315 316 316 315
322 326 357 359 358 357 355 354 353 352 349 349 348 347 345 343 349 348 349 347 343 335 328 332 333 332 332 329 325 324 322 322 320 320 317 316 316 315 314 315 315 313 313

GFSSE_925_thetae_162.txt.gz
Theta_e
352 347 346 348 347 344 340 338 332 329 328 328 330 336 340 342 341 337 330 328 335 340 339 341 342 341 337 334 327 324 324 323 324 325 327 333 337 340 339 340 327 325 326
349 345 347 349 347 343 340 338 333 330 326 326 331 336 338 337 335 333 329 331 335 337 341 341 340 339 337 331 325 325 325 325 326 327 325 325 326 330 333 330 332 325 326
346 346 347 348 346 343 340 338 334 330 326 327 330 331 333 335 336 332 331 333 336 339 341 339 339 337 333 327 326 327 325 326 329 328 338 326 325 325 325 325 325 325 326
346 347 347 348 346 343 340 339 334 331 326 328 327 329 336 340 336 333 334 338 341 340 341 339 339 340 331 325 326 328 331 337 342 345 345 342 337 333 333 335 332 329 329
346 347 346 347 345 343 340 340 335 332 327 328 330 337 342 339 334 335 337 339 341 339 338 339 341 335 328 325 325 328 333 339 341 343 348 348 343 342 341 341 340 339 338
346 346 345 346 345 344 340 340 336 333 328 328 333 341 340 337 337 340 343 343 339 340 342 340 330 327 325 325 325 326 329 332 335 346 345 348 345 344 342 340 340 340 340
346 345 344 346 345 344 341 341 338 334 330 329 333 341 342 342 344 344 343 342 342 341 335 327 326 325 325 325 324 325 326 330 340 342 344 347 346 341 338 335 334 333 334
345 344 343 345 345 344 341 341 339 335 332 331 332 341 346 345 347 343 342 341 339 332 329 329 326 325 325 325 324 324 326 330 334 334 342 348 344 338 338 335 334 336 337
347 345 344 343 344 345 343 342 340 336 333 332 332 340 345 345 346 343 339 335 333 332 330 327 326 324 324 324 325 325 324 326 328 334 342 343 340 339 336 337 336 336 337
349 346 346 345 359 349 344 343 341 336 335 334 334 339 347 347 345 340 338 335 334 331 328 326 324 323 323 323 322 322 323 324 325 333 345 340 338 337 336 336 336 335 335
354 348 345 348 350 356 348 344 342 338 337 335 335 337 342 344 342 338 336 335 331 330 329 326 323 322 322 323 324 323 324 326 328 335 338 339 337 338 337 334 332 331 332
355 352 345 343 342 351 354 347 344 340 339 338 336 336 337 340 339 337 336 333 331 330 327 323 323 322 323 330 332 332 333 333 335 335 340 338 340 336 334 332 330 330 331
355 353 348 344 343 342 351 352 347 349 342 340 339 336 334 338 338 337 336 334 331 330 324 323 323 329 333 336 340 341 341 340 342 341 339 340 337 335 332 329 327 329 329
354 353 349 346 341 342 345 350 351 350 345 342 339 336 334 337 338 337 336 339 332 328 324 324 327 333 338 341 344 343 343 345 343 341 342 340 338 334 331 329 327 326 326
353 352 350 347 345 343 343 348 347 345 343 341 338 336 333 334 338 336 338 336 334 328 326 331 339 340 341 344 343 346 345 345 344 343 342 340 338 335 331 329 325 324 323
354 351 349 347 345 345 343 342 343 343 342 341 338 335 332 338 337 340 340 342 335 328 332 340 341 342 342 343 347 346 346 345 344 343 342 338 337 335 332 327 327 328 326
329 349 349 346 345 346 344 342 340 339 339 339 336 332 335 341 338 341 342 342 336 336 338 339 340 342 343 348 346 345 342 344 344 342 335 335 336 336 333 329 329 329 326
323 344 350 347 344 346 344 342 339 335 334 335 334 331 335 343 341 341 343 346 339 340 341 341 342 348 347 346 346 345 345 343 341 337 335 336 335 332 331 330 330 329 327
320 336 350 347 345 344 342 341 338 337 335 332 332 332 332 342 344 342 343 345 343 342 344 348 348 347 347 345 344 345 344 341 338 335 334 333 331 332 330 330 330 329 326
319 333 351 348 347 344 342 342 340 339 337 336 335 335 330 342 345 347 343 343 342 349 349 349 348 346 344 344 342 339 341 337 334 331 333 332 331 330 330 331 330 330 326
317 331 351 349 349 346 344 344 344 342 341 342 340 340 333 340 345 346 343 341 342 348 346 347 346 344 342 338 334 333 339 335 332 332 334 333 332 333 331 332 327 326 324
316 327 352 350 352 347 345 347 347 347 344 344 343 342 337 340 345 345 343 342 348 347 347 346 345 343 338 332 327 333 329 335 331 335 331 329 322 318 318 319 316 316 316
314 324 348 351 352 348 345 341 337 349 349 347 346 344 341 341 344 342 342 344 349 347 345 344 344 341 334 333 333 329 327 328 327 329 322 320 318 316 316 315 314 316 317
314 316 332 351 351 348 345 342 345 348 349 349 347 345 343 344 343 343 344 347 348 347 344 345 344 339 333 334 334 333 332 332 326 328 325 319 317 315 316 315 314 314 312
313 315 321 343 350 348 345 343 341 340 345 350 348 345 344 345 344 343 347 348 346 345 344 344 340 335 334 334 330 326 324 322 326 320 320 317 316 314 315 313 313 309 303
313 314 318 343 350 349 347 345 342 344 348 349 346 345 345 345 344 343 349 347 346 345 338 333 333 333 331 328 326 324 323 320 318 317 314 313 313 313 314 312 309 303 302

GFSSE_925_thetae_165.txt.gz
Theta_e
351 348 347 348 344 340 336 332 329 327 332 340 343 345 347 343 337 329 330 336 338 340 342 342 342 340 335 329 327 329 331 332 327 328 335 340 341 339 339 329 325 326 326
349 348 346 348 344 339 336 332 329 326 327 334 340 342 342 340 335 329 331 336 339 339 341 341 339 337 333 327 326 328 328 328 328 327 334 339 338 338 335 331 325 325 326
349 346 346 348 343 339 336 332 330 325 325 329 335 340 340 337 332 329 332 337 337 340 340 339 338 335 330 327 328 327 327 326 330 331 329 327 328 331 328 326 325 325 326
348 345 347 348 343 339 336 333 330 325 325 330 334 336 336 335 331 330 332 335 338 340 338 338 339 334 328 328 329 328 331 337 342 344 344 337 335 334 332 333 332 334 334
347 345 347 347 343 339 337 334 331 325 326 329 330 333 336 335 330 331 333 336 339 339 338 338 339 332 327 328 330 335 341 343 343 348 348 347 344 341 340 340 340 340 339
346 346 347 346 343 339 338 335 332 326 327 327 330 336 338 333 330 332 336 339 337 336 337 340 330 327 326 326 328 332 335 336 345 346 343 347 345 345 342 341 341 339 338
347 346 347 346 343 340 338 336 333 327 327 329 335 340 336 331 332 334 336 336 336 340 339 328 326 325 325 326 326 327 330 333 342 340 346 345 345 343 339 336 336 336 336
347 347 347 346 344 340 339 337 333 329 328 331 338 338 334 334 340 341 340 340 341 338 327 326 325 325 325 326 326 327 328 332 333 334 343 345 345 340 338 336 336 337 338
349 349 349 346 344 341 339 338 335 331 330 333 338 338 337 341 343 342 342 341 337 329 329 327 325 324 325 325 326 328 326 326 329 336 343 343 340 339 336 337 337 337 338
353 351 349 347 345 344 340 340 336 333 331 332 340 342 341 344 343 340 336 334 331 331 328 324 323 323 323 323 324 325 324 325 326 338 342 341 338 336 337 335 334 333 334
354 352 351 347 347 348 346 341 337 334 332 332 338 342 343 345 344 340 336 333 331 329 327 325 323 322 322 323 323 323 324 326 330 334 337 340 337 338 335 333 331 330 330
353 354 350 347 347 349 350 348 340 337 335 335 336 341 344 345 343 339 335 334 330 328 328 324 322 322 324 327 330 333 336 336 338 336 338 338 339 336 333 330 330 329 330
354 353 352 351 347 348 350 349 346 342 343 339 336 339 345 345 343 339 335 334 330 329 327 323 322 323 327 333 338 340 341 341 342 340 339 339 339 335 332 329 328 327 328
355 353 353 352 349 347 347 346 346 344 349 345 344 342 344 343 341 337 335 332 329 329 325 323 326 331 337 341 342 342 343 344 342 341 340 340 337 334 331 328 326 324 324
354 354 352 352 351 348 347 346 347 344 346 344 343 339 335 338 339 337 334 333 331 329 325 324 328 334 339 343 342 343 344 344 344 342 341 339 336 334 331 328 326 326 325
339 354 353 351 351 351 349 347 346 345 343 341 338 335 334 334 335 336 333 334 335 329 326 329 335 339 341 342 345 346 345 344 343 342 340 337 336 335 332 329 327 327 326
336 342 353 352 350 349 349 348 347 346 344 339 337 335 333 332 333 334 333 336 336 332 328 334 339 340 340 342 347 346 346 344 343 341 337 335 335 335 333 330 329 328 326
321 335 346 351 349 348 348 348 347 345 342 340 338 335 332 329 330 334 338 339 337 333 332 336 338 340 342 344 346 345 344 344 342 337 334 335 334 332 331 329 328 328 327
317 320 334 349 347 346 348 346 346 344 342 341 339 335 331 327 336 335 340 341 340 338 338 339 340 341 346 345 345 345 342 340 337 335 333 333 331 332 331 330 329 328 328
315 318 332 347 346 345 345 344 343 342 341 340 339 336 331 328 337 340 340 342 345 345 340 339 341 346 346 343 342 340 341 336 333 332 332 331 331 331 330 331 330 329 327
317 321 344 346 344 344 342 341 340 339 339 338 338 337 332 328 339 342 340 341 342 344 344 345 347 344 340 339 337 336 335 331 333 333 333 332 330 327 322 322 323 321 321
315 322 344 347 345 344 342 341 341 338 338 337 338 336 332 326 338 342 343 344 343 343 349 348 346 342 337 334 327 331 329 332 324 320 319 318 317 316 316 315 315 316 317
315 320 339 347 345 343 343 342 342 341 341 340 341 339 337 332 335 343 344 346 343 341 348 346 344 344 334 331 328 328 325 329 325 320 316 315 315 316 315 316 316 311 307
310 315 334 346 347 345 343 344 344 345 343 342 344 342 340 339 332 341 344 344 343 347 346 345 344 342 336 333 332 331 330 329 325 326 320 315 314 314 313 309 306 304 303
310 312 323 347 348 346 344 344 343 345 345 344 343 344 343 342 336 338 345 342 346 347 345 345 342 339 332 332 331 328 325 325 327 321 320 315 313 312 309 305 302 302 305
314 311 313 341 347 347 345 344 342 343 344 346 346 345 343 343 340 341 344 343 346 346 345 344 342 337 332 332 329 327 324 321 318 316 313 311 311 312 308 304 301 301 302

GFSSE_925_thetae_168.txt.gz
Theta_e
350 348 349 347 340 337 332 331 335 341 343 343 343 345 346 340 330 331 336 337 343 346 345 344 342 342 337 331 331 331 325 324 327 333 340 342 341 337 329 325 325 326 326
349 348 348 346 340 337 332 329 331 338 342 344 345 346 345 337 330 329 336 336 341 342 342 341 339 334 328 326 327 326 326 329 330 336 340 341 340 339 336 329 326 325 326
349 347 348 345 340 336 332 329 327 332 339 343 346 346 342 337 330 330 335 338 341 340 340 340 338 334 329 327 327 327 327 328 328 329 331 330 334 333 335 330 327 327 327
349 346 347 345 340 336 332 330 326 327 334 340 342 342 340 337 329 332 336 338 338 339 340 338 335 332 329 327 328 328 327 337 336 335 334 331 334 332 333 334 332 332 332
351 346 347 345 340 337 333 330 326 325 329 335 339 340 339 334 329 332 336 336 339 338 339 340 336 329 328 329 329 333 338 344 345 346 347 346 342 340 340 340 340 340 340
349 346 347 345 341 336 333 331 326 324 327 333 337 337 335 331 329 331 334 337 339 338 338 340 333 327 327 329 335 340 342 340 346 344 342 345 345 343 342 339 337 337 339
350 346 347 345 341 337 334 332 327 324 328 331 333 335 334 331 330 331 335 337 338 336 339 334 328 327 327 328 331 333 334 339 342 338 346 344 345 343 339 336 337 338 338
352 351 348 345 341 338 335 332 328 326 327 328 332 336 335 331 331 334 338 337 335 339 334 326 326 326 327 328 328 328 330 336 335 334 344 344 342 339 337 337 337 338 339
353 353 351 347 342 338 336 333 330 327 327 328 335 338 334 332 332 335 337 337 340 336 326 325 325 326 327 328 327 326 327 329 329 338 345 345 340 337 336 337 336 335 336
353 354 354 352 345 339 337 334 331 329 329 331 337 336 333 334 340 341 340 341 338 328 328 326 324 324 326 327 326 326 325 326 328 340 341 341 337 337 336 334 332 331 331
353 353 352 353 351 345 339 336 333 330 330 331 336 336 337 342 342 342 340 336 331 330 327 324 323 324 324 323 323 323 323 325 329 334 338 339 338 337 334 331 329 330 330
353 352 352 352 354 348 344 342 336 333 332 333 336 338 340 343 342 340 336 334 332 329 327 325 324 323 323 325 327 331 333 334 337 336 338 338 339 336 332 328 328 329 330
352 351 351 350 353 349 347 346 342 338 336 334 336 338 340 343 344 341 338 336 333 330 328 325 324 323 327 331 335 339 340 341 340 339 339 339 339 336 331 328 328 327 326
353 349 349 350 351 351 348 346 346 342 338 337 337 340 342 347 344 341 338 335 332 330 328 323 323 324 330 336 339 341 341 342 341 341 340 340 338 335 331 328 326 326 325
353 352 350 350 349 349 350 349 347 344 340 336 335 339 344 345 348 339 336 335 332 330 328 323 326 331 334 338 341 342 343 343 342 341 341 339 337 335 331 328 327 328 327
319 345 352 352 349 349 349 349 347 345 343 341 337 335 335 333 335 336 335 334 331 330 328 324 326 333 337 340 343 345 344 343 343 341 340 337 336 334 332 329 328 328 327
315 327 350 352 351 349 349 349 348 346 345 343 342 340 335 331 330 333 334 333 332 334 330 327 330 336 339 341 345 346 345 344 342 342 339 335 335 334 332 329 327 328 327
314 322 340 350 352 350 349 348 348 347 345 344 342 342 338 334 331 332 332 332 331 335 333 330 334 338 340 342 346 345 344 344 343 340 335 335 335 334 332 330 327 327 327
312 314 329 348 351 351 349 348 348 346 345 344 342 340 338 335 333 332 331 331 332 338 336 332 334 337 339 345 345 344 343 343 338 335 335 335 333 333 331 330 330 329 328
313 312 315 334 347 349 348 348 347 346 346 343 342 340 339 336 334 331 330 334 338 340 337 335 338 340 342 343 340 340 336 334 333 332 332 331 330 330 330 330 329 327 327
314 315 314 319 340 347 347 346 345 345 345 344 342 341 340 337 333 329 331 334 341 342 340 339 339 340 344 340 337 332 327 331 332 332 331 331 328 321 320 319 319 319 322
313 313 317 328 341 345 345 344 344 344 343 343 341 340 338 337 334 329 337 337 341 342 344 344 341 343 339 337 330 332 334 326 317 317 318 317 316 316 316 316 316 316 314
310 312 316 336 341 344 344 342 342 341 340 339 339 339 337 336 334 330 336 340 340 341 342 346 345 344 337 331 328 330 330 335 323 316 314 315 316 316 315 314 312 309 307
310 311 315 325 342 343 342 341 341 340 340 339 338 337 336 335 334 331 333 341 342 343 343 347 347 344 339 333 328 329 327 328 330 326 316 313 312 310 308 307 307 306 306
312 309 310 324 340 342 342 341 341 340 340 339 338 338 338 335 335 333 327 339 343 345 343 343 345 343 338 333 329 329 327 328 327 326 322 313 310 305 304 303 303 302 301
315 316 312 333 344 344 342 342 342 342 341 341 341 341 340 340 338 336 332 337 343 345 343 345 345 341 335 332 330 329 326 323 320 318 317 314 312 309 304 303 302 300 299

GFSSE_925_thetae_171.txt.gz
Theta_e
355 359 350 343 337 339 340 343 343 342 340 339 340 337 334 331 334 332 335 345 347 347 346 344 343 344 343 339 336 331 327 327 330 335 337 336 331 328 328 329 328 337 326
356 358 349 343 336 337 340 341 341 341 342 343 344 342 336 330 332 333 338 345 347 346 345 343 342 339 332 327 329 325 326 327 334 339 342 340 340 337 332 329 329 335 328
357 358 350 343 336 334 339 338 340 341 343 344 345 343 339 331 330 334 337 342 344 344 342 340 335 330 325 325 324 324 326 328 334 334 337 344 342 336 334 332 330 329 330
358 358 355 342 336 333 333 333 338 341 343 344 344 343 339 332 328 335 336 339 342 341 340 338 335 327 325 325 325 326 327 327 328 328 338 338 339 333 334 335 334 334 334
358 358 356 341 337 332 331 331 334 338 342 344 345 343 339 333 328 334 336 340 340 339 339 337 331 327 327 326 326 330 338 342 344 347 349 348 345 341 340 340 342 341 340
357 357 353 341 337 333 330 329 329 333 340 343 344 341 339 333 329 334 337 339 339 339 339 338 330 329 330 328 330 335 343 344 346 346 345 346 347 344 343 339 336 336 337
355 356 355 342 337 333 331 329 327 329 335 339 340 339 339 332 330 336 337 339 339 339 339 338 330 329 330 331 339 342 340 342 345 341 348 348 348 344 338 336 337 338 339
355 356 356 346 338 334 332 329 326 326 330 334 336 338 335 331 331 335 336 340 340 339 340 332 329 329 328 330 335 336 335 340 338 339 347 348 341 339 336 337 338 337 338
355 356 356 353 343 335 332 330 326 326 329 332 334 335 334 331 331 334 337 339 339 340 336 328 328 329 328 328 328 329 331 336 336 343 346 346 340 337 337 336 333 332 333
355 354 354 354 351 348 345 331 328 328 328 329 331 334 335 332 333 337 339 339 340 340 328 327 328 329 328 327 326 326 327 329 334 344 345 347 337 338 336 332 329 329 330
354 354 353 353 352 350 348 345 331 328 327 327 332 337 336 342 343 343 344 342 342 332 329 328 328 327 327 326 325 324 324 330 331 341 344 339 338 337 333 329 327 328 328
353 353 353 353 351 350 348 348 345 345 343 343 345 344 343 345 347 348 346 341 338 331 330 328 326 326 326 331 330 325 334 335 335 336 345 338 339 336 332 329 327 327 327
354 353 352 353 352 351 348 349 347 345 346 346 347 346 345 346 348 346 345 342 342 336 337 334 333 333 334 333 335 338 340 341 341 339 344 339 339 336 332 329 325 325 325
354 353 353 352 352 352 349 348 347 345 346 346 346 346 346 346 347 346 344 343 343 339 339 338 334 335 334 335 339 341 342 343 342 345 344 340 338 336 332 328 327 327 326
331 354 354 353 352 352 351 349 348 347 345 344 345 346 344 345 345 346 344 343 341 339 338 336 333 332 335 338 340 342 343 343 344 345 346 340 337 335 332 329 328 328 327
317 331 352 353 353 353 351 350 349 348 346 345 344 345 346 343 342 345 344 343 341 339 337 335 333 334 336 340 343 345 346 344 345 342 344 343 336 335 332 330 328 328 328
316 317 326 349 354 353 352 351 349 348 346 344 343 344 344 344 343 344 343 342 340 339 336 333 328 334 339 342 346 348 347 345 345 343 343 341 339 335 332 330 328 328 329
314 314 319 339 351 353 352 351 350 349 347 345 344 343 343 342 340 343 342 341 340 340 338 336 334 338 343 344 348 348 348 347 345 344 342 339 339 338 333 331 328 327 328
314 313 314 336 349 352 353 352 350 349 348 346 345 344 344 339 339 340 341 340 340 340 341 338 336 339 343 346 348 345 344 344 343 340 338 339 338 337 335 332 330 329 328
313 313 313 320 341 352 352 351 350 349 348 347 346 344 344 342 340 337 338 338 337 339 340 340 339 340 344 346 344 338 337 337 336 335 335 334 333 331 330 330 330 332 330
314 314 314 314 321 348 351 348 348 348 348 347 345 345 344 342 341 337 337 337 337 338 341 342 340 343 343 341 339 334 330 329 329 329 330 327 324 324 325 325 324 323 322
316 314 313 318 328 339 347 348 348 347 346 346 345 345 343 341 341 341 337 338 337 341 344 343 343 343 343 340 342 341 339 329 323 322 322 321 321 321 319 315 314 314 314
315 316 314 313 332 339 342 347 346 345 345 345 343 344 343 341 341 340 337 335 332 337 344 346 346 344 343 339 335 340 341 342 326 321 319 319 318 315 312 311 311 311 310
314 313 313 313 328 341 345 345 344 343 343 342 343 343 343 342 341 340 339 339 334 336 342 346 346 345 344 342 334 332 331 334 335 328 319 317 315 312 310 309 308 307 306
318 317 312 310 319 338 342 344 344 344 344 344 343 344 343 342 340 338 337 336 335 340 341 342 345 345 342 340 333 331 331 332 332 333 330 320 315 310 308 308 306 305 303
318 319 318 315 325 334 341 344 344 345 345 344 344 344 342 341 340 338 336 335 338 339 342 343 343 346 343 338 334 333 332 332 332 330 329 325 322 315 308 307 306 303 301

GFSSE_925_thetae_174.txt.gz
Theta_e
356 360 351 342 338 339 342 345 345 343 339 332 332 335 338 338 335 330 334 346 346 346 344 345 344 344 344 339 336 332 325 324 326 328 328 326 328 328 331 335 334 339 326
357 361 349 340 338 339 343 345 345 342 336 332 334 335 338 335 334 330 341 346 347 346 345 344 344 344 340 334 335 326 325 329 335 335 334 334 332 331 331 331 335 342 328
357 361 352 340 339 340 344 345 344 339 336 336 336 337 334 334 332 335 342 346 347 346 345 343 341 336 327 330 326 324 326 332 335 335 344 345 343 333 334 331 329 329 331
359 360 355 339 339 340 343 344 342 340 340 342 339 336 332 332 332 336 344 346 346 346 342 339 333 327 325 324 324 324 328 332 332 332 345 343 342 335 336 336 336 337 337
360 361 357 339 339 339 341 343 341 342 343 344 343 339 333 330 334 336 341 343 344 343 340 337 333 325 325 324 325 327 327 328 334 346 347 345 346 343 340 340 344 342 340
360 360 358 341 337 338 340 342 342 343 344 345 344 341 335 331 334 336 338 342 342 342 339 338 331 326 325 326 329 336 340 345 346 349 347 348 349 346 341 338 337 338 338
359 358 359 342 336 335 337 340 341 342 343 345 345 341 336 332 331 336 339 340 341 340 340 339 331 329 327 328 328 334 344 345 348 345 349 350 349 345 338 337 338 338 339
357 357 358 348 337 333 333 334 336 339 342 344 344 341 338 333 332 336 340 341 341 341 341 339 330 329 329 329 339 343 341 344 345 344 347 349 345 339 336 338 338 335 334
357 356 357 352 347 335 332 330 331 333 338 342 342 340 339 333 331 336 338 342 344 343 341 334 329 328 329 333 338 338 336 340 343 343 346 346 341 337 338 336 332 329 331
357 357 356 353 350 346 345 332 329 327 331 335 337 339 337 332 331 336 338 341 343 340 340 330 328 328 328 328 330 331 331 335 340 343 344 348 340 337 336 332 328 327 327
358 357 356 354 352 348 347 344 335 331 331 333 337 337 337 341 342 343 342 344 340 342 333 329 328 328 328 328 327 326 327 335 337 338 343 345 337 338 334 330 327 326 326
358 357 356 355 354 351 347 348 344 344 343 342 342 345 342 341 343 342 343 346 340 340 331 331 329 327 327 332 331 327 330 332 333 338 345 342 339 337 333 330 326 326 327
344 357 355 356 355 352 349 349 345 345 343 342 342 346 343 342 343 343 347 345 345 338 338 335 334 332 330 331 330 329 333 337 341 342 347 339 340 337 332 330 326 326 326
329 344 355 356 355 354 350 349 347 345 345 344 344 346 342 344 345 345 344 344 342 338 336 335 333 331 333 334 334 336 341 344 344 343 347 339 340 337 333 330 328 327 327
320 325 346 356 356 355 354 350 349 346 346 346 346 346 342 343 344 345 343 341 340 338 337 337 334 335 336 339 340 343 345 346 345 345 345 341 339 336 333 330 329 328 328
319 321 326 348 351 355 354 352 350 349 346 347 346 346 345 343 343 344 345 344 341 338 337 336 334 335 337 340 343 346 346 346 346 345 344 346 338 336 333 331 330 331 331
319 319 322 327 345 351 353 354 352 350 348 347 345 346 347 344 343 344 343 342 340 339 337 338 334 336 339 342 345 348 348 348 347 346 345 344 341 335 334 332 331 333 334
319 319 321 321 324 345 351 354 354 351 350 347 346 345 347 346 344 344 341 341 340 340 339 337 335 334 340 343 345 348 348 348 347 346 345 343 340 341 338 332 330 329 332
318 319 321 322 323 336 350 352 353 352 352 349 347 345 347 347 346 344 341 340 341 341 339 336 335 337 340 344 345 349 349 349 348 347 345 342 341 340 340 337 332 330 330
318 319 322 323 325 336 346 350 352 354 353 351 349 346 346 346 346 345 342 342 343 341 339 338 336 338 342 344 345 348 346 345 344 343 342 341 340 339 337 336 335 333 329
318 319 323 324 326 332 338 349 352 353 352 352 351 349 347 348 346 346 343 343 343 339 338 340 340 342 345 346 347 344 341 340 340 339 339 337 333 332 332 331 330 329 325
319 319 321 324 327 329 333 344 351 350 351 351 351 351 350 349 347 346 344 342 342 338 340 342 341 340 345 347 346 346 346 338 335 333 333 332 330 329 326 322 320 320 320
320 319 321 322 324 331 332 339 346 349 349 349 349 348 350 349 347 347 346 341 341 339 339 343 343 342 344 346 346 347 350 350 339 330 329 328 327 325 321 319 318 317 316
319 319 319 321 323 326 336 334 343 345 344 344 346 347 347 349 348 347 346 344 341 339 336 345 344 342 345 346 345 345 344 340 341 337 327 325 323 322 320 318 316 313 311
322 322 322 322 322 325 335 340 341 344 342 343 345 346 346 348 348 347 346 345 342 339 337 344 345 347 347 345 346 344 341 339 337 338 339 329 324 321 318 317 314 313 310
321 322 323 324 325 324 331 340 342 341 343 344 346 345 345 346 346 346 344 345 343 341 339 344 347 348 347 347 347 342 341 340 337 337 336 335 330 323 318 315 314 311 308